Regional Weather Roundup
Issued by NWS

Home | Current Version | Previous Version | Text Only | Print | Product List | Glossary On
Versions: 1 2 3 4 5 6 7 8 9 10 11 12 13 14 15 16 17 18 19 20 21 22 23 24 25 26 27 28 29 30 31 32 33 34 35 36 37 38 39 40 41 42 43 44 45 46 47 48 49 50
000
ASUS43 KFSD 180810
RWRSD

WEATHER ROUNDUP FOR SOUTH DAKOTA
NATIONAL WEATHER SERVICE SIOUX FALLS SD
300 AM CDT THU SEP 18 2014

NOTE: "FAIR" INDICATES FEW OR NO CLOUDS BELOW 12,000 FEET WITH NO
SIGNIFICANT WEATHER AND/OR OBSTRUCTIONS TO VISIBILITY.


SDZ001>005-009-010-012>017-180900-
NORTHWEST AND NORTH CENTRAL SOUTH DAKOTA

CITY           SKY/WX    TMP DP  RH WIND       PRES   REMARKS
BUFFALO          N/A     58  50  75 SE12      29.84F
FAITH            N/A     55  47  74 SE14      29.93F
MOBRIDGE       CLEAR     53  47  79 E9        29.93F
$$

SDZ012>016-024>037-041>051-057-063-072>074-180900-
SOUTHWEST AND SOUTH CENTRAL SOUTH DAKOTA

CITY           SKY/WX    TMP DP  RH WIND       PRES   REMARKS
RAPID CTY ARPT PTCLDY    55  51  86 CALM      29.94F
PIERRE         PTCLDY    51  46  83 E7        29.93F
CUSTER         CLEAR     50  47  89 NW5       30.04F
ELLSWORTH AFB  MOCLDY    56  52  87 S7        29.94F
PHILIP         PTCLDY    57  53  86 E6        29.92F
PINE RIDGE     CLEAR     59  55  87 E6        29.93F
WINNER         FAIR      61  55  81 SE7       29.93S
$$

SDZ004>011-016>023-039-040-180900-
NORTHEAST SOUTH DAKOTA

CITY           SKY/WX    TMP DP  RH WIND       PRES   REMARKS
ABERDEEN       CLEAR     46  45  96 NE3       29.99S
WATERTOWN      CLEAR     54  48  80 CALM      30.00R
SISSETON         N/A     44  42  93 N3        29.99S
$$

SDZ017-020-022-023-036>040-048>070-180900-
SOUTHEAST SOUTH DAKOTA

CITY           SKY/WX    TMP DP  RH WIND       PRES   REMARKS
SIOUX FALLS    MOCLDY    60  55  83 E5        29.98S
HURON          CLEAR     53  51  93 E6        29.96F
CHAMBERLAIN    CLEAR     55  52  89 E6        29.95S
MITCHELL       CLEAR     54  53  97 E5        29.96F
YANKTON        PTCLDY    55  52  88 E5        29.97S
$$

ABBREVIATIONS USED IN REMARKS
   TC - TEMPERATURE IN CELSIUS
  WCI - WIND CHILL INDEX
   HX - HEAT INDEX
  VSB - VISIBILITY



USA.gov is the U.S. government's official web portal to all federal, state and local government web resources and services.